DIWATA-2B (43678 NORAD) Tracking and Keplerian Element Data

This shows tracking and keplerian element data for the satellite.

Feedback or suggestion? Click here.




ElementValue
Catalog43678
NameDIWATA-2B
Epoch Orbit32451
Epoch Day286.88351406
Epoch Year2024
RAAN88.4949
Inclination98.0859
Eccentricity0.0009098
Argument of Perigee10.9871
Mean Anonmoly349.1547
Mean Motion14.96274563
Decay Rate5.839E-05
L11 43678U 18084H 24286.88351406 .00005839 00000+0 52189-3 0 9998
L22 43678 98.0859 88.4949 0009098 10.9871 349.1547 14.96274563324518



Live tracking and technical data element details for DIWATA-2B (NORAD 43678). DIWATA-2B can be tracked NOW for your location showing map with azimuth and elevation plus other details from your city location.







IsCatalogInMostPopularTable: catalog: 43678, numindb: 590
Update: records affected: 1



GetName: 43678 DIWATA-2B

Hit Count: updated at: Fri, 24 Jan 2025 22:47:08 GMT